User: anonymous   Login
Location: Newark
(44.0692°N, 7.2567°E)
Time: 13:22:18
(UTC+00:00)
Language:

TIGRISAT - Orbit

View from above orbital plane
View from above orbital plane
View from above satellite
View from above satellite

Ground track
Ground track

The orbit data is extracted from the following two-line orbital elements,

1 40043U 14033AK  19289.75620566  .00000134  00000-0  27002-4 0  9991
2 40043  97.7389 152.3674 0061360  69.6584 291.1204 14.74300179286290
Epoch (UTC): 16 October 2019 18:08:56
Eccentricity: 0.0061360
inclination: 97.7389°
perigee height: 604 km
apogee height: 690 km
right ascension of ascending node: 152.3674°
argument of perigee: 69.6584°
revolutions per day: 14.74300179
mean anomaly at epoch: 291.1204°
orbit number at epoch: 28629

The dashed part of the orbit path shows where the satellite is in the earth's shadow,  

DLR